| time (UTC) | temp F | wind direction | speed MPH | gust MPH | rain 1hr in | rain 24hr in | rain mn in | humidity % | barometer mb |
| 20260831203054 | 65 | 104 | 3.0 | 5.0 | 0.05 | 0.27 | 0.27 | 96 | 965.5 |
| 20260831201533 | 65 | 86 | 1.0 | 6.0 | 0.05 | 0.27 | 0.27 | 96 | 965.5 |
| 20260831200038 | 65 | 110 | 2.0 | 6.0 | 0.04 | 0.26 | 0.26 | 96 | 965.7 |
| 20260831194530 | 65 | 99 | 4.0 | 8.0 | 0.01 | 0.23 | 0.23 | 96 | 965.8 |
| 20260831193028 | 64 | 97 | 4.0 | 8.0 | 0.00 | 0.22 | 0.22 | 96 | 965.8 |
| 20260831191527 | 64 | 84 | 4.0 | 8.0 | 0.00 | 0.22 | 0.22 | 96 | 966.0 |
| 20260831190030 | 64 | 96 | 5.0 | 10.0 | 0.00 | 0.22 | 0.22 | 95 | 966.3 |
| 20260831184529 | 64 | 82 | 4.0 | 10.0 | 0.01 | 0.22 | 0.22 | 96 | 966.3 |
| 20260831183027 | 64 | 99 | 3.0 | 8.0 | 0.03 | 0.22 | 0.22 | 95 | 966.5 |
| 20260831181526 | 63 | 114 | 4.0 | 7.0 | 0.06 | 0.22 | 0.22 | 95 | 966.7 |
| 20260831180021 | 63 | 91 | 5.0 | 9.0 | 0.07 | 0.22 | 0.22 | 95 | 966.8 |
| 20260831174522 | 63 | 119 | 4.0 | 8.0 | 0.08 | 0.21 | 0.21 | 94 | 966.9 |
| 20260831173019 | 63 | 101 | 3.0 | 8.0 | 0.10 | 0.19 | 0.19 | 94 | 967.2 |
| 20260831171519 | 63 | 93 | 4.0 | 8.0 | 0.15 | 0.16 | 0.16 | 94 | 967.3 |
| 20260831170026 | 64 | 115 | 4.0 | 9.0 | 0.15 | 0.15 | 0.15 | 93 | 967.4 |
| 20260831164517 | 64 | 74 | 3.0 | 7.0 | 0.12 | 0.12 | 0.12 | 93 | 967.5 |
| 20260831163017 | 65 | 85 | 2.0 | 4.0 | 0.08 | 0.08 | 0.08 | 92 | 967.6 |
| 20260831161515 | 65 | 90 | 1.0 | 3.0 | 0.00 | 0.00 | 0.00 | 89 | 967.9 |
| 20260831160032 | 65 | 69 | 2.0 | 5.0 | 0.00 | 0.00 | 0.00 | 89 | 967.5 |
| 20260831154513 | 65 | 63 | 2.0 | 5.0 | 0.00 | 0.00 | 0.00 | 89 | 967.5 |
| 20260831153032 | 65 | 112 | 3.0 | 7.0 | 0.00 | 0.00 | 0.00 | 88 | 967.5 |
| 20260831151514 | 66 | 66 | 2.0 | 6.0 | 0.00 | 0.00 | 0.00 | 88 | 967.4 |
| 20260831150011 | 65 | 94 | 3.0 | 8.0 | 0.00 | 0.00 | 0.00 | 89 | 967.4 |
| 20260831144510 | 65 | 117 | 2.0 | 6.0 | 0.00 | 0.00 | 0.00 | 89 | 967.6 |
| 20260831143007 | 65 | 82 | 2.0 | 7.0 | 0.00 | 0.00 | 0.00 | 89 | 967.3 |
| 20260831141516 | 64 | 74 | 2.0 | 7.0 | 0.00 | 0.00 | 0.00 | 90 | 967.3 |
| 20260831140009 | 64 | 65 | 3.0 | 9.0 | 0.00 | 0.00 | 0.00 | 90 | 967.5 |
| 20260831134507 | 64 | 110 | 2.0 | 4.0 | 0.00 | 0.00 | 0.00 | 91 | 967.6 |
| 20260831133003 | 63 | 117 | 1.0 | 4.0 | 0.00 | 0.00 | 0.00 | 92 | 967.6 |
| 20260831131507 | 63 | 103 | 1.0 | 6.0 | 0.00 | 0.00 | 0.00 | 94 | 967.7 |
| 20260831130123 | 62 | 71 | 2.0 | 5.0 | 0.00 | 0.00 | 0.00 | 95 | 967.6 |
| 20260831124602 | 62 | 74 | 1.0 | 3.0 | 0.00 | 0.00 | 0.00 | 96 | 967.6 |
| 20260831123057 | 62 | 65 | 2.0 | 4.0 | 0.00 | 0.00 | 0.00 | 96 | 967.6 |
| 20260831121555 | 61 | 111 | 0.0 | 2.0 | 0.00 | 0.00 | 0.00 | 96 | 967.7 |
| 20260831120142 | 61 | 164 | 0.0 | 1.0 | 0.00 | 0.00 | 0.00 | 96 | 967.8 |
| 20260831114551 | 61 | 164 | 0.0 | 0.0 | 0.00 | 0.00 | 0.00 | 96 | 967.6 |
| 20260831113050 | 60 | 164 | 0.0 | 1.0 | 0.00 | 0.00 | 0.00 | 96 | 967.5 |
| 20260831111552 | 60 | 238 | 0.0 | 3.0 | 0.00 | 0.00 | 0.00 | 96 | 967.6 |
| 20260831110044 | 60 | 236 | 0.0 | 1.0 | 0.00 | 0.00 | 0.00 | 96 | 967.3 |
| 20260831104544 | 60 | 211 | 0.0 | 3.0 | 0.00 | 0.00 | 0.00 | 95 | 967.0 |
| 20260831103048 | 60 | 213 | 0.0 | 0.0 | 0.00 | 0.00 | 0.00 | 96 | 966.8 |
| 20260831101541 | 60 | 213 | 0.0 | 0.0 | 0.00 | 0.00 | 0.00 | 95 | 967.1 |
| 20260831100045 | 60 | 213 | 0.0 | 0.0 | 0.00 | 0.00 | 0.00 | 95 | 966.9 |
| 20260831094547 | 59 | 213 | 0.0 | 0.0 | 0.00 | 0.00 | 0.00 | 94 | 967.1 |
| 20260831093040 | 59 | 213 | 0.0 | 0.0 | 0.00 | 0.00 | 0.00 | 94 | 967.0 |
| 20260831091538 | 60 | 213 | 0.0 | 0.0 | 0.00 | 0.00 | 0.00 | 94 | 967.1 |
| 20260831090037 | 60 | 213 | 0.0 | 0.0 | 0.00 | 0.00 | 0.00 | 94 | 966.9 |
| 20260831084540 | 60 | 215 | 0.0 | 0.0 | 0.00 | 0.00 | 0.00 | 94 | 966.8 |
| 20260831083036 | 61 | 215 | 0.0 | 0.0 | 0.00 | 0.00 | 0.00 | 94 | 967.0 |
| 20260831081542 | 60 | 215 | 0.0 | 0.0 | 0.00 | 0.00 | 0.00 | 93 | 966.9 |
| 20260831080035 | 61 | 215 | 0.0 | 0.0 | 0.00 | 0.00 | 0.00 | 93 | 966.7 |
| 20260831074532 | 61 | 215 | 0.0 | 0.0 | 0.00 | 0.00 | 0.00 | 93 | 967.0 |
| 20260831073031 | 61 | 215 | 0.0 | 0.0 | 0.00 | 0.00 | 0.00 | 93 | 966.9 |
| 20260831071533 | 61 | 215 | 0.0 | 0.0 | 0.00 | 0.00 | 0.00 | 92 | 966.6 |
| 20260831070035 | 62 | 215 | 0.0 | 0.0 | 0.00 | 0.00 | 0.00 | 92 | 966.9 |
| 20260831064528 | 62 | 215 | 0.0 | 0.0 | 0.00 | 0.00 | 0.00 | 92 | 966.9 |
| 20260831063026 | 62 | 215 | 0.0 | 0.0 | 0.00 | 0.00 | 0.00 | 91 | 967.6 |
| 20260831061523 | 62 | 215 | 0.0 | 0.0 | 0.00 | 0.00 | 0.00 | 91 | 967.0 |
| 20260831060020 | 63 | 215 | 0.0 | 0.0 | 0.00 | 0.00 | 0.00 | 91 | 967.3 |
| 20260831054520 | 63 | 215 | 0.0 | 0.0 | 0.00 | 0.00 | 0.00 | 90 | 967.5 |
| 20260831053020 | 63 | 215 | 0.0 | 0.0 | 0.00 | 0.00 | 0.00 | 90 | 967.4 |
| 20260831051532 | 63 | 215 | 0.0 | 0.0 | 0.00 | 0.00 | 0.00 | 90 | 967.4 |
| 20260831050017 | 63 | 215 | 0.0 | 0.0 | 0.00 | 0.00 | 0.00 | 90 | 967.4 |
| 20260831044515 | 64 | 215 | 0.0 | 0.0 | 0.00 | 0.00 | 0.00 | 89 | 967.4 |
| 20260831043014 | 64 | 215 | 0.0 | 0.0 | 0.00 | 0.00 | 0.00 | 89 | 967.4 |
| 20260831041519 | 64 | 215 | 0.0 | 0.0 | 0.00 | 0.00 | 0.00 | 89 | 967.4 |
| 20260831040031 | 64 | 215 | 0.0 | 0.0 | 0.00 | 0.00 | 0.00 | 89 | 967.3 |
| 20260831034510 | 64 | 215 | 0.0 | 0.0 | 0.00 | 0.00 | 0.00 | 89 | 967.4 |
| 20260831033012 | 64 | 215 | 0.0 | 0.0 | 0.00 | 0.00 | 0.00 | 89 | 967.6 |
| 20260831031510 | 64 | 215 | 0.0 | 0.0 | 0.00 | 0.00 | 0.00 | 89 | 967.5 |
| 20260831030010 | 64 | 215 | 0.0 | 0.0 | 0.00 | 0.00 | 0.00 | 89 | 967.5 |
| 20260831024508 | 64 | 215 | 0.0 | 0.0 | 0.00 | 0.00 | 0.00 | 89 | 967.6 |
| 20260831023013 | 64 | 215 | 0.0 | 0.0 | 0.00 | 0.00 | 0.00 | 88 | 967.5 |
| 20260831021525 | 64 | 215 | 0.0 | 0.0 | 0.00 | 0.00 | 0.00 | 88 | 967.7 |
| 20260831020006 | 65 | 215 | 0.0 | 0.0 | 0.00 | 0.00 | 0.00 | 88 | 967.5 |
| 20260831014505 | 65 | 215 | 0.0 | 0.0 | 0.00 | 0.00 | 0.00 | 87 | 967.5 |
| 20260831013005 | 65 | 215 | 0.0 | 3.0 | 0.00 | 0.00 | 0.00 | 87 | 967.4 |
| 20260831011506 | 65 | 208 | 0.0 | 0.0 | 0.00 | 0.00 | 0.00 | 86 | 967.3 |
| 20260831010007 | 65 | 208 | 0.0 | 2.0 | 0.00 | 0.00 | 0.00 | 86 | 967.2 |
| 20260831004504 | 65 | 208 | 1.0 | 3.0 | 0.00 | 0.00 | 0.00 | 86 | 967.0 |
| 20260831003003 | 65 | 187 | 0.0 | 1.0 | 0.00 | 0.00 | 0.00 | 86 | 966.8 |
| 20260831001503 | 65 | 187 | 0.0 | 0.0 | 0.00 | 0.00 | 0.00 | 86 | 966.7 |
| 20260831000001 | 66 | 187 | 0.0 | 1.0 | 0.00 | 0.00 | 0.00 | 86 | 966.4 |
| 20260830234501 | 66 | 187 | 0.0 | 1.0 | 0.00 | 0.00 | 0.00 | 85 | 966.3 |
| 20260830233001 | 66 | 187 | 0.0 | 3.0 | 0.00 | 0.00 | 0.00 | 85 | 966.3 |
| 20260830231603 | 66 | 187 | 0.0 | 2.0 | 0.00 | 0.00 | 0.00 | 85 | 966.3 |
| 20260830230100 | 66 | 187 | 0.0 | 2.0 | 0.00 | 0.00 | 0.00 | 85 | 966.3 |
| 20260830224606 | 66 | 187 | 0.0 | 2.0 | 0.00 | 0.00 | 0.00 | 85 | 966.2 |
| 20260830223100 | 66 | 187 | 0.0 | 1.0 | 0.00 | 0.00 | 0.00 | 85 | 966.1 |
| 20260830221559 | 66 | 187 | 0.0 | 2.0 | 0.00 | 0.00 | 0.00 | 84 | 966.2 |
| 20260830220121 | 66 | 187 | 0.0 | 0.0 | 0.00 | 0.00 | 0.00 | 85 | 966.0 |
| 20260830214602 | 67 | 187 | 0.0 | 0.0 | 0.00 | 0.00 | 0.00 | 85 | 966.1 |
| 20260830213057 | 67 | 187 | 0.0 | 3.0 | 0.00 | 0.00 | 0.00 | 84 | 966.2 |
| 20260830211602 | 67 | 175 | 0.0 | 2.0 | 0.00 | 0.00 | 0.00 | 84 | 966.3 |
| 20260830210056 | 66 | 169 | 0.0 | 2.0 | 0.00 | 0.00 | 0.00 | 85 | 966.2 |
| 20260830204554 | 67 | 132 | 0.0 | 2.0 | 0.00 | 0.00 | 0.00 | 84 | 966.2 |